Zurück zum Katalog

KUIPER-00087

AktivKommunikationLEO
NORAD 64833·PAYLOAD·🇺🇸 United States

Gestartet Jul 16, 2025 von Cape Canaveral Space Force Station

Loading…

Nächste Überflüge (nächste 24 Stunden)

TLE

AktuellSource: CelesTrak SupGP

Epoche: Sep 14, 2026, 19:10 UTC

1 64833C 25151T   26257.79871528 -.00001480  00000+0 -19416-3 0  2572
2 64833  51.8984 164.3282 0001006  92.8343  94.3354 14.79845927    18

Verfolge KUIPER-00087 in Echtzeit mit AllMySat

Download on the App Store